User: anonymous   Login
Location: Campavaglio
(41.1333°N, 9.2333°E)
Time: 13:31:33
(UTC+00:00)
Language:

Cosmos 2237 - Orbit

View from above orbital plane
View from above orbital plane
View from above satellite
View from above satellite

Ground track
Ground track

The orbit data is extracted from the following two-line orbital elements,

1 22565U 93016A   20218.27937849 +.00000149 +00000-0 +10685-3 0  9998
2 22565 070.8369 153.9023 0008770 218.3513 141.6984 14.12442559411177
Epoch (UTC): 05 August 2020 06:42:18
Eccentricity: 0.0008770
inclination: 70.8369°
perigee height: 844 km
apogee height: 857 km
right ascension of ascending node: 153.9023°
argument of perigee: 218.3513°
revolutions per day: 14.12442559
mean anomaly at epoch: 141.6984°
orbit number at epoch: 41117

The dashed part of the orbit path shows where the satellite is in the earth's shadow,  

DLR